Regional Weather Roundup
Issued by NWS

Home | Current Version | Previous Version | Text Only | Print | Product List | Glossary On
Versions: 1 2 3 4 5 6 7 8 9 10 11 12 13 14 15 16 17 18 19 20 21 22 23 24 25 26 27 28 29 30 31 32 33 34 35 36 37 38 39 40 41 42 43 44 45 46 47 48 49 50
000
ASUS43 KTOP 231359
RWRKS

WEATHER ROUNDUP FOR KANSAS
NATIONAL WEATHER SERVICE GOODLAND KS
900 AM CDT SUN APR 23 2017

NOTE:  "FAIR" INDICATES FEW OR NO CLOUDS BELOW 12,000 FEET WITH NO
SIGNIFICANT WEATHER AND/OR OBSTRUCTIONS TO VISIBILITY.

KSZ001>006-013>018-027>032-041>047-231500-
NORTHWEST KANSAS

CITY           SKY/WX    TMP DP  RH WIND       PRES   REMARKS
GOODLAND       SUNNY     46  34  62 S20G28    30.11S
HAYS           SUNNY     44  37  76 CALM      30.20S
HILL CITY      SUNNY     46  36  68 SW5       30.18S
RUSSELL        SUNNY     47  36  65 W6        30.19R
$$

KSZ061>065-074>080-084>089-231500-
SOUTHWEST KANSAS

CITY           SKY/WX    TMP DP  RH WIND       PRES   REMARKS
DODGE CITY     SUNNY     47  35  63 SW8       30.21S
ELKHART          N/A     47  32  56 S13         N/A
GARDEN CITY    SUNNY     44  35  70 S6        30.19S
GREAT BEND     SUNNY     46  39  76 VRB3      30.21R
LIBERAL        SUNNY     46  37  71 SW8       30.22S
$$

KSZ066>073-081>083-090>101-231500-
SOUTHEAST KANSAS

CITY           SKY/WX    TMP DP  RH WIND       PRES   REMARKS
CHANUTE        SUNNY     53  39  59 NE5       30.18R
COFFEYVILLE    SUNNY     51  41  68 N7        30.18R
HUTCHINSON     SUNNY     48  40  73 CALM      30.20S
MEDICINE LODGE   N/A     48  41  76 CALM      30.21S
NEWTON         SUNNY     51  44  77 CALM      30.21R
PARSONS        SUNNY     52  41  66 NW6       30.19R
WICHITA INTL   SUNNY     52  38  58 N3        30.20R
WICHITA JABRA  SUNNY     52  40  63 N3        30.19R
WINFIELD       SUNNY     50  43  77 CALM      30.21R
$$

KSZ007>012-019>026-033>040-048>060-102>105-231500-
NORTHEAST KANSAS

CITY           SKY/WX    TMP DP  RH WIND       PRES   REMARKS
CONCORDIA      SUNNY     53  43  68 CALM      30.19F
EMPORIA        SUNNY     50  39  66 NW5       30.19S
LAWRENCE       SUNNY     50  40  68 CALM      30.19S
MANHATTAN      SUNNY     47  41  80 CALM      30.21S
OLATHE IND     SUNNY     52  38  58 N3        30.18F
OLATHE EXE     SUNNY     55  37  50 NE3       30.18S
SALINA         SUNNY     49  39  68 CALM      30.21R
TOPEKA BILLARD SUNNY     49  41  74 CALM      30.19F
TOPEKA FORBES  SUNNY     52  39  61 CALM      30.18F
$$




USA.gov is the U.S. government's official web portal to all federal, state and local government web resources and services.